Simultaneous Nadir Overpasses (SNOs) Predictions

Prediction of SNOs between AURA and NPP Satellite Orbit:

Table of predicted SNOs for the next 14.0 days since TLE Epoch: 11/16/2024
Index Date (AURA) Time (AURA) Lat,Lon (AURA) SZA (AURA ) Date (NPP) Time (NPP) Lat,Lon (NPP) SZA (NPP ) Distance(km) Time Diff (sec)
1 11/18/2024 05:53:19 -80.91,-174.30 72.13 11/18/2024 05:53:11 -80.91,-174.32 72.12 0.37 8
2 11/18/2024 06:41:39 81.77, 17.55 104.87 11/18/2024 06:42:52 81.24, 17.62 104.53 58.97 73
3 11/20/2024 17:56:22 80.90,-175.11 108.47 11/20/2024 17:56:19 80.91,-175.13 108.47 0.56 3
4 11/23/2024 05:59:23 -80.93,-175.43 71.05 11/23/2024 05:59:25 -80.94,-175.28 71.07 2.60 2
5 11/25/2024 17:13:03 -80.88, 15.48 70.45 11/25/2024 17:11:51 -80.88, 15.40 70.39 1.49 72
6 11/25/2024 18:02:22 80.92,-176.30 109.49 11/25/2024 18:02:33 80.92,-176.32 109.48 0.33 11
7 11/28/2024 05:15:59 80.89, 14.93 110.01 11/28/2024 05:14:57 80.89, 14.97 110.05 0.63 62



Historial Predications of SNOs between AURA and NPP
